This demonstration page uses our WeatherBlox Daily Observations layout. Learn more.

Left ArrowRight Arrow

30.21309, -93.2044

Hourly Observations for July 15, 2019

Temp ( °F °C ) Dew Point ( °F °C ) Humidity (%) Winds ( mph kmh ) Pressure ( in mb ) Visibility ( mi km ) Precip ( " mm )
12:15 am 00:15 Cloudy with Thunderstorms 77 25.1 76 24.2 95 95 SSE 7 11 29.88 1012 10 16 0.00 0.00
12:35 am 00:35 Cloudy with Thunderstorms 82 27.6 78 25.8 90 90 S 8 13 29.91 1013 10 16 0.00 0.00
12:55 am 00:55 Cloudy with Thunderstorms 82 27.5 79 25.9 91 91 S 8 13 29.88 1012 7 11 0.00 0.00
1:15 am 01:15 Cloudy with Thunderstorms 82 27.5 79 26 92 92 S 8 13 29.88 1012 7 11 0.00 0.00
1:35 am 01:35 Cloudy with Nearby Thunderstorms 82 27.6 79 26 91 91 SSE 7 11 29.88 1012 7 11 0.00 0.00
1:55 am 01:55 Cloudy 82 27.7 79 26 90 90 S 9 15 29.88 1012 7 11 0.00 0.00
2:15 am 02:15 Cloudy 82 27.6 79 26 91 91 SSW 10 17 29.91 1013 7 11 0.00 0.00
2:35 am 02:35 Partly Cloudy 82 27.7 78 25.8 89 89 SSW 12 19 29.88 1012 7 11 0.00 0.00
2:55 am 02:55 Partly Cloudy with Strong Thunderstorms 82 27.7 78 25.8 89 89 SSW 12 19 29.88 1012 7 11 0.00 0.00
3:35 am 03:35 Partly Cloudy with Heavy Rain 82 27.6 78 25.8 90 90 SSW 12 19 29.88 1012 7 11 0.00 0.00
3:55 am 03:55 Mostly Cloudy with Nearby Thunderstorms 82 27.6 79 26.1 92 92 SW 12 19 29.88 1012 7 11 0.00 0.00
4:15 am 04:15 Cloudy with Rain 81 27.4 79 26.1 93 93 SSW 10 17 29.88 1012 7 11 0.00 0.00
4:35 am 04:35 Cloudy 82 27.5 79 26.1 92 92 SSW 10 17 29.88 1012 7 11 0.00 0.00
4:55 am 04:55 Cloudy with Heavy Rain 82 27.6 79 26 91 91 SW 10 17 29.91 1013 7 11 0.00 0.00
5:15 am 05:15 Cloudy with Nearby Thunderstorms 81 27 79 26.1 95 95 WSW 14 22 29.91 1013 5 8 0.05 1.27
5:35 am 05:35 Cloudy with Thunderstorms 80 26.8 78 25.6 93 93 WSW 12 19 29.91 1013 7 11 0.09 2.29
6:00 am 06:00 Mostly Cloudy with Thunderstorms 79 26 75 24 89 89 SW 12 19 29.91 1013 7 11 0.00 0.00
6:55 am 06:55 Mostly Cloudy with Thunderstorms 77 25 75 24 94 94 SE 6 9 29.94 1014 5 8 0.00 0.00
7:17 am 07:17 Cloudy with Thunderstorms 79 26 75 24 89 89 S 16 26 29.94 1014 7 11 0.00 0.00
7:47 am 07:47 Cloudy with Thunderstorms 77 25 73 23 89 89 S 12 19 29.94 1014 6 10 0.00 0.00
8:50 am 08:50 Cloudy with Thunderstorms 77 25 75 24 94 94 SSW 14 22 30.00 1016 7 11 0.00 0.00
9:55 am 09:55 Mostly Cloudy with Thunderstorms 75 24 75 24 100 100 S 6 9 30.00 1016 5 8 0.00 0.00
10:53 am 10:53 Mostly Cloudy with Thunderstorms 79 26 72 22 79 79 SW 14 22 30.00 1016 10 16 0.00 0.00
11:55 am 11:55 Mostly Cloudy 81 27 75 24 84 84 SSW 13 20 30.00 1016 10 16 0.00 0.00
1:55 pm 13:55 Cloudy 86 30 77 25 75 75 S 15 24 30.00 1016 10 16 0.00 0.00
2:50 pm 14:50 Mostly Cloudy 88 31 79 26 75 75 SSW 15 24 29.97 1015 10 16 0.00 0.00
4:50 pm 16:50 Mostly Cloudy 86 30 79 26 79 79 S 13 20 29.94 1014 10 16 0.00 0.00
5:50 pm 17:50 Mostly Cloudy 86 30 77 25 75 75 S 12 19 29.94 1014 10 16 0.00 0.00
6:50 pm 18:50 Cloudy with Strong Thunderstorms 84 29 77 25 79 79 SSW 8 13 29.97 1015 5 8 0.00 0.00
7:50 pm 19:50 Mostly Cloudy 79 26 77 25 94 94 Calm 29.97 1015 10 16 0.00 0.00
8:50 pm 20:50 Partly Cloudy 81 27 79 26 94 94 ESE 7 11 29.97 1015 10 16 0.00 0.00
9:50 pm 21:50 Mostly Clear 79 26 79 26 100 100 ESE 8 13 29.97 1015 10 16 0.00 0.00
10:15 pm 22:15 Clear with Heavy Rain 80 26.5 79 26 97 97 ESE 8 13 29.97 1015 7 11 0.00 0.00
10:35 pm 22:35 Clear with Heavy Rain 80 26.4 78 25.8 97 97 ESE 7 11 30.00 1016 7 11 0.00 0.00
10:55 pm 22:55 Clear with Heavy Rain 79 26.3 78 25.8 97 97 ESE 7 11 30.00 1016 7 11 0.00 0.00
11:15 pm 23:15 Clear with Heavy Rain 79 26.1 78 25.6 97 97 ESE 8 13 30.00 1016 7 11 0.00 0.00
11:35 pm 23:35 Clear with Heavy Rain 79 26.2 78 25.8 98 98 SE 8 13 30.00 1016 7 11 0.00 0.00
11:55 pm 23:55 Clear with Heavy Rain 79 26.1 78 25.7 98 98 ESE 8 13 30.00 1016 5 8 0.00 0.00

Powered by AerisWeather